Temperature
19 19 19 19 19 19 19 19 18 18 18 18 18 18 18 18 18 18 18 18 18 18 18 18 18 18 18 17 17 17 17 17 17 17 17 17 17 17 17 16 16 16 16
19 19 19 19 19 19 18 18 18 18 18 18 18 18 18 18 18 18 18 18 18 18 18 18 18 18 18 17 17 17 17 17 17 17 17 17 17 17 16 16 16 16 16
19 19 19 19 19 18 18 18 18 18 18 18 18 18 18 18 18 18 18 18 18 18 18 18 18 18 18 17 17 17 17 17 17 17 17 17 17 16 16 16 16 16 16
19 19 19 19 19 18 18 18 18 18 18 18 18 18 18 18 18 18 18 18 18 18 18 18 18 18 17 17 17 17 17 17 17 17 17 17 17 17 16 16 16 16 16
19 19 19 19 19 18 18 18 18 18 18 18 18 18 18 18 18 18 18 18 18 18 18 18 17 17 17 17 17 17 17 17 17 17 17 17 16 16 16 16 16 16 16
19 19 19 19 19 18 18 18 18 18 18 18 18 18 18 18 18 18 18 18 18 18 18 17 17 17 17 17 17 17 17 17 17 17 17 17 17 16 16 16 16 16 16
19 19 19 19 19 18 18 18 18 18 18 18 18 18 18 18 18 18 18 18 18 18 17 17 17 17 17 17 17 17 17 17 17 17 17 17 17 16 16 16 16 16 16
19 19 19 19 19 18 18 18 18 18 18 18 18 18 17 18 18 18 18 18 18 17 17 17 17 17 17 17 17 17 17 17 17 17 17 16 16 16 16 16 16 16 16
19 19 19 19 19 18 18 18 18 18 18 18 18 17 17 17 17 17 17 17 17 17 17 17 17 17 17 17 17 17 17 17 16 16 16 16 16 16 16 16 16 16 16
19 19 19 19 19 18 18 18 18 18 18 18 18 17 17 17 17 17 17 17 17 17 17 17 17 17 17 16 16 16 16 16 16 16 16 16 16 16 16 16 16 16 16
19 19 19 19 18 18 18 18 18 18 18 18 17 17 17 17 17 17 16 17 17 17 17 17 17 16 16 16 16 16 16 16 16 16 16 16 16 16 16 16 16 16 16
19 19 18 18 18 18 18 18 18 18 18 18 17 17 17 17 17 17 17 16 16 16 16 16 16 16 16 16 16 16 16 16 16 16 16 16 16 16 16 16 16 16 16
19 18 18 18 18 18 18 18 18 18 18 18 18 17 17 17 17 17 17 16 16 16 16 16 16 16 16 16 16 16 16 16 16 16 16 16 15 15 15 15 15 15 15
19 18 18 18 18 18 18 18 18 17 17 17 17 17 17 17 17 17 17 16 16 16 16 16 16 16 16 16 15 15 15 15 15 15 15 15 15 15 15 15 15 15 15
18 18 18 18 18 18 18 17 17 17 17 17 17 17 17 17 17 16 16 16 16 16 15 15 16 15 15 15 15 15 15 15 15 15 15 15 15 15 15 15 15 15 15
18 18 18 18 18 17 17 17 17 17 17 17 17 17 17 17 16 16 16 16 16 16 15 15 15 15 15 15 15 15 15 15 15 15 15 15 15 14 14 15 15 14 14
18 18 18 18 17 17 17 17 17 17 17 17 16 16 16 16 16 16 16 16 16 16 15 15 15 15 15 15 15 15 15 15 15 15 14 14 14 14 14 14 14 14 14
18 18 18 17 17 17 17 17 16 17 17 16 16 16 16 16 16 16 16 16 16 15 15 15 15 15 15 15 15 15 15 14 14 14 14 14 14 14 14 14 14 14 14
18 18 17 17 17 17 17 16 16 16 16 16 16 16 16 16 16 16 15 15 15 15 15 15 15 15 15 14 14 14 14 14 14 14 14 14 14 14 14 14 13 13 14
18 17 17 17 17 17 16 16 16 16 16 16 16 16 16 15 15 15 15 15 15 15 15 15 15 14 14 14 14 14 14 14 14 14 14 14 14 14 14 14 13 13 13
17 17 17 17 16 16 16 16 16 16 16 16 16 15 15 15 15 15 15 15 15 15 15 14 14 14 14 14 14 14 14 14 14 14 14 14 14 14 14 14 13 13 13
17 17 17 16 16 16 16 16 16 16 15 15 15 15 15 15 15 15 15 14 14 14 14 14 14 14 14 14 14 14 14 13 13 14 13 13 13 13 14 13 13 13 13
17 17 16 16 16 16 16 15 15 15 15 15 15 15 15 15 15 15 14 14 14 14 14 14 14 14 14 14 14 13 13 13 13 13 13 13 13 13 13 13 13 13 13
17 16 16 16 16 16 15 15 15 15 15 15 15 15 15 15 15 14 14 14 14 14 14 14 14 14 14 13 13 13 13 13 13 13 13 13 13 13 13 13 13 13 13
16 16 16 16 16 16 15 15 15 15 15 15 15 14 14 14 14 14 14 14 14 14 14 13 13 13 13 13 13 13 13 13 13 13 13 13 13 13 13 13 13 13 13
16 16 16 15 15 15 15 15 15 14 14 14 14 14 14 14 14 14 14 14 13 14 13 13 13 13 13 13 13 13 13 12 12 12 12 12 12 12 12 13 13 13 13
Wind_Speed
2 2 2 2 2 2 2 2 1 2 1 2 3 3 3 4 6 7 7 11 12 12 12 11 11 11 11 11 11 11 11 11 11 11 12 12 12 11 11 10 10 10 11
3 3 2 2 1 2 2 2 2 2 1 1 1 2 3 4 5 6 7 9 11 11 11 12 11 11 11 11 11 11 11 11 10 10 11 11 12 12 12 11 11 11 11
4 3 2 2 1 2 2 2 1 1 1 1 1 1 2 3 4 5 7 7 8 10 11 11 11 11 11 11 10 10 10 10 11 10 10 10 10 11 11 11 11 11 11
5 3 2 1 2 2 2 2 2 1 1 1 1 1 1 1 2 4 6 7 7 7 9 11 11 10 10 10 10 9 9 9 10 10 10 10 10 10 11 12 12 11 11
6 4 2 1 2 2 1 2 2 2 2 1 1 1 1 1 1 3 4 5 7 7 7 9 10 10 10 10 9 9 9 9 9 10 10 11 11 11 11 12 12 12 12
5 4 2 2 2 1 1 1 2 2 2 1 1 0 1 1 1 2 3 3 5 6 6 7 7 7 9 9 9 9 9 9 8 9 9 10 11 11 11 12 12 12 12
4 3 2 2 2 2 1 2 2 2 1 1 2 1 2 1 0 1 1 2 3 4 5 6 6 6 6 7 8 9 9 9 9 9 9 9 9 9 10 11 11 11 11
3 4 3 2 2 2 2 2 2 2 1 1 2 2 2 3 2 1 0 2 2 3 3 5 5 6 5 4 5 7 9 9 9 9 9 9 9 9 10 10 10 11 12
4 3 3 2 2 2 2 2 3 3 2 0 1 3 2 2 1 2 1 1 2 2 2 3 4 6 6 5 5 6 7 9 10 9 9 8 8 8 9 10 10 10 11
3 3 3 3 3 3 2 2 2 2 3 1 0 0 2 3 2 0 2 1 0 2 2 3 3 4 6 6 6 5 6 6 7 7 7 7 6 6 7 8 9 9 9
1 3 3 3 2 2 2 2 2 3 3 2 1 0 0 1 1 2 1 1 1 1 1 2 2 3 5 5 5 6 7 7 5 5 6 5 5 5 5 6 6 7 8
1 2 3 2 2 2 2 2 3 3 2 2 2 1 1 1 1 2 2 2 1 1 1 1 2 3 4 5 6 7 8 7 6 5 5 5 5 5 4 5 5 5 6
1 2 2 2 2 2 2 2 2 2 2 2 2 1 1 2 2 2 3 2 1 1 0 0 1 3 4 4 5 6 8 8 7 5 5 4 4 5 5 5 5 4 5
3 3 2 2 2 2 2 2 2 2 1 2 2 2 2 2 2 2 3 3 1 0 1 2 1 2 3 5 6 6 6 8 7 6 5 4 4 4 5 4 4 4 4
3 3 3 3 2 2 2 2 1 1 1 1 2 2 2 2 1 2 2 3 4 2 2 2 1 2 3 4 5 6 6 7 7 7 6 5 4 4 4 4 4 4 4
3 3 2 3 2 2 2 2 1 1 1 1 1 1 1 1 1 1 1 2 3 4 3 2 2 2 2 3 5 5 6 6 6 7 7 6 6 5 5 5 5 5 5
3 3 3 3 3 2 2 2 1 1 1 0 0 1 0 1 1 1 1 1 2 3 3 2 1 1 1 1 2 3 5 6 6 7 8 8 7 7 6 6 6 6 5
3 3 3 3 3 3 2 2 2 1 2 1 1 1 0 0 0 1 1 2 2 2 3 2 1 1 1 2 2 2 3 5 6 7 9 9 8 8 7 6 7 6 6
3 3 3 3 3 3 3 3 3 2 2 2 2 2 2 1 0 1 1 1 2 2 2 3 2 1 1 1 0 1 2 2 4 6 8 9 9 9 9 8 8 7 6
4 4 3 3 3 3 3 3 3 3 3 3 3 3 3 3 3 3 2 2 2 1 2 2 1 1 1 1 0 1 1 2 3 3 5 7 8 9 9 9 9 8 7
4 4 4 3 3 3 4 4 4 4 3 3 3 3 3 4 5 4 3 3 3 2 2 2 2 1 1 1 2 2 2 2 2 2 2 3 3 4 6 8 9 9 9
2 2 3 3 4 4 5 6 5 3 3 4 4 3 4 3 4 5 4 5 5 5 5 4 3 3 4 3 3 2 2 1 2 2 2 3 2 3 4 7 10 10 10
3 3 3 3 3 5 5 5 6 4 4 4 4 4 4 4 4 3 3 3 4 6 7 6 6 6 5 5 4 3 3 3 4 3 2 3 2 3 4 5 8 10 10
3 3 3 3 3 4 5 5 5 4 3 4 5 5 5 4 4 4 3 3 3 4 5 6 6 7 7 6 6 6 5 4 3 2 2 2 2 3 3 4 7 9 10
2 3 3 3 3 4 5 5 4 3 3 4 4 4 5 5 5 5 4 3 4 4 5 6 7 7 7 7 5 3 1 1 2 3 2 2 2 2 2 3 5 7 9
3 2 2 3 4 4 4 5 5 3 3 3 3 3 4 5 5 5 5 4 5 5 3 3 3 4 5 5 6 6 5 4 3 3 3 3 2 1 2 2 2 3 4
Wind_Direction
150 147 154 160 165 164 150 157 175 169 168 162 164 161 162 170 175 181 185 188 189 192 193 193 196 197 197 199 202 201 199 200 201 204 207 209 208 209 211 210 207 206 208
159 154 151 145 167 176 171 167 173 165 170 160 154 164 171 183 180 181 189 194 195 196 198 200 200 199 198 201 202 203 202 204 207 208 210 212 212 212 215 215 214 211 212
164 159 137 135 175 179 173 162 141 129 137 150 171 195 182 185 180 175 184 189 198 202 202 201 200 200 201 201 203 204 204 207 209 209 208 208 210 210 213 213 214 213 212
159 148 138 155 173 160 158 151 139 129 125 150 197 233 216 182 188 178 180 186 194 199 199 198 195 197 200 202 203 203 206 208 209 209 209 211 212 210 209 211 214 215 216
159 148 155 174 150 139 146 157 141 143 145 159 204 214 213 202 194 180 176 185 191 192 191 195 195 197 200 203 207 209 210 214 218 215 214 215 216 215 213 214 217 218 220
151 145 143 151 134 121 112 137 150 149 159 177 183 195 237 199 199 191 193 182 183 184 185 190 191 196 197 199 203 206 211 217 221 221 219 219 220 219 216 216 219 221 224
143 137 137 136 133 136 154 157 146 131 123 109 89 24 351 344 273 211 193 167 164 167 162 171 178 184 195 204 209 214 218 221 223 221 218 218 219 220 217 218 219 221 224
146 142 136 140 143 141 121 124 132 128 146 107 128 113 13 354 341 349 103 154 161 153 162 172 168 173 182 185 201 214 222 227 224 217 215 216 219 220 218 219 222 227 229
147 143 146 146 148 149 151 151 148 147 162 195 123 139 144 221 301 342 17 167 163 155 170 164 171 177 180 180 192 208 218 224 217 214 214 217 219 221 221 224 229 233 233
150 143 139 146 148 135 143 161 152 148 149 170 282 201 162 161 153 303 337 339 168 164 179 179 175 175 181 185 194 197 201 206 199 202 208 212 215 219 224 229 235 238 238
146 134 136 136 146 139 140 127 117 126 135 148 161 188 101 83 115 147 228 299 335 281 203 186 169 172 183 188 190 196 196 198 200 197 197 201 206 211 222 229 237 244 244
166 132 126 128 141 136 127 137 123 128 148 145 147 129 136 158 185 163 192 229 243 277 264 197 175 179 179 187 194 195 190 184 186 190 191 199 205 212 223 237 244 250 253
168 186 152 147 153 156 145 145 136 139 154 154 158 186 185 199 177 167 158 193 225 275 340 279 220 187 182 183 190 191 188 183 186 192 197 204 212 220 227 240 248 255 258
188 182 164 159 159 157 147 138 141 159 143 166 188 194 201 220 189 177 172 165 161 332 329 259 271 209 192 184 192 194 191 189 192 196 199 207 218 226 229 234 240 248 255
173 159 158 152 147 144 136 137 137 183 168 166 198 215 215 234 206 199 181 168 165 182 238 257 250 240 210 193 200 196 192 196 197 201 204 210 218 224 227 227 227 233 244
170 160 159 157 154 148 139 137 151 200 153 203 206 208 231 231 192 177 172 176 165 168 197 240 235 229 210 207 208 196 195 199 201 207 211 215 222 226 232 233 227 232 240
176 170 170 163 167 171 164 153 168 156 139 114 87 123 247 236 187 204 167 155 158 153 181 257 261 246 190 213 203 200 208 204 213 219 220 223 227 229 232 236 233 235 242
187 178 167 165 179 182 173 171 190 174 166 174 192 131 204 136 244 207 173 177 183 172 169 210 262 273 237 220 207 209 209 215 217 224 224 226 232 234 235 236 236 239 243
187 184 166 169 184 190 188 189 189 186 190 204 207 197 215 174 206 245 213 208 209 186 161 171 225 239 248 240 208 255 236 240 234 233 230 233 236 238 239 239 239 241 241
183 186 186 190 192 193 192 194 192 193 204 217 218 211 212 203 205 205 214 216 202 175 153 159 196 229 241 258 143 232 271 261 245 240 240 236 237 238 240 240 240 241 238
189 193 192 201 204 205 207 197 197 203 209 224 238 233 225 216 211 208 206 205 194 183 180 186 205 209 230 214 228 233 236 260 260 241 248 245 226 232 240 242 242 243 236
189 183 193 202 218 228 213 206 200 206 212 218 234 247 244 227 224 219 214 205 196 194 196 196 207 215 227 223 225 220 217 212 268 253 200 257 206 231 237 233 238 234 231
187 192 203 202 221 229 218 213 207 204 214 224 227 232 239 228 222 226 229 233 235 225 205 193 203 218 215 216 205 215 217 213 232 232 185 248 243 241 243 243 239 232 231
194 204 214 217 222 231 217 213 208 206 224 234 231 225 222 230 230 209 216 238 253 252 228 212 211 221 218 211 200 205 215 227 260 248 175 223 241 238 247 244 246 231 228
204 217 218 217 217 235 217 206 197 202 233 249 249 232 213 219 226 203 201 228 254 272 264 232 222 225 225 218 193 165 182 185 259 258 214 193 227 238 252 260 255 234 228
209 221 230 227 221 229 228 213 198 198 228 246 261 253 222 215 222 206 201 209 233 253 259 273 260 254 247 241 216 195 195 203 227 250 230 189 211 182 269 268 255 243 232
Height
1528 1528 1528 1528 1528 1528 1528 1529 1530 1530 1531 1532 1533 1534 1535 1536 1536 1537 1537 1538 1539 1539 1540 1540 1541 1541 1542 1543 1543 1544 1545 1546 1547 1548 1549 1550 1551 1551 1553 1554 1555 1556 1557
1529 1528 1528 1529 1529 1529 1529 1530 1530 1531 1531 1532 1533 1534 1534 1535 1536 1536 1537 1537 1538 1539 1539 1540 1540 1541 1541 1541 1542 1543 1544 1545 1546 1546 1547 1548 1549 1550 1551 1551 1552 1554 1555
1529 1529 1529 1529 1529 1530 1530 1530 1530 1531 1531 1532 1533 1533 1534 1534 1535 1535 1536 1536 1537 1538 1538 1539 1539 1540 1540 1541 1541 1542 1543 1544 1544 1545 1546 1546 1547 1548 1548 1549 1550 1552 1553
1530 1530 1529 1529 1529 1530 1530 1530 1530 1531 1531 1532 1532 1533 1533 1534 1534 1534 1534 1535 1536 1536 1537 1538 1538 1538 1539 1540 1540 1541 1541 1542 1543 1543 1544 1545 1545 1546 1546 1547 1548 1549 1550
1530 1530 1529 1529 1529 1529 1530 1530 1530 1530 1531 1531 1532 1532 1533 1533 1533 1533 1533 1534 1534 1535 1536 1536 1537 1537 1538 1538 1539 1539 1540 1540 1541 1541 1542 1543 1543 1544 1545 1545 1546 1547 1548
1529 1529 1529 1529 1529 1529 1529 1529 1529 1530 1530 1531 1531 1532 1532 1532 1532 1532 1532 1532 1533 1534 1534 1535 1535 1535 1536 1536 1537 1538 1538 1538 1539 1539 1540 1540 1541 1542 1542 1543 1544 1545 1546
1529 1529 1528 1528 1528 1528 1528 1528 1529 1529 1529 1530 1530 1531 1531 1531 1531 1531 1531 1531 1532 1533 1533 1534 1534 1534 1534 1535 1535 1536 1536 1536 1537 1537 1538 1538 1539 1540 1540 1541 1541 1542 1543
1529 1528 1528 1528 1527 1527 1527 1527 1528 1528 1529 1529 1529 1529 1530 1531 1530 1531 1531 1531 1531 1532 1532 1532 1532 1532 1533 1533 1533 1534 1534 1534 1534 1534 1535 1536 1537 1537 1538 1538 1539 1539 1540
1528 1528 1527 1527 1527 1527 1526 1527 1527 1527 1528 1528 1529 1529 1529 1529 1529 1530 1530 1530 1530 1531 1531 1531 1531 1531 1531 1531 1531 1532 1532 1531 1531 1532 1533 1534 1534 1535 1535 1535 1536 1536 1536
1527 1526 1526 1526 1526 1526 1526 1526 1526 1526 1527 1527 1528 1528 1529 1528 1528 1529 1530 1529 1529 1529 1529 1530 1530 1530 1530 1530 1530 1530 1530 1529 1530 1530 1531 1531 1531 1532 1532 1533 1533 1533 1533
1526 1526 1525 1525 1525 1525 1525 1525 1525 1525 1525 1525 1526 1527 1527 1527 1527 1527 1527 1528 1528 1528 1528 1528 1528 1528 1529 1529 1529 1529 1528 1528 1528 1529 1529 1529 1529 1529 1529 1530 1530 1529 1529
1525 1525 1525 1524 1524 1524 1524 1524 1524 1524 1525 1525 1525 1525 1525 1526 1526 1526 1526 1526 1527 1527 1527 1527 1527 1527 1527 1527 1527 1527 1527 1527 1527 1527 1527 1527 1527 1527 1527 1527 1527 1526 1526
1523 1524 1524 1524 1524 1524 1524 1524 1523 1523 1524 1523 1524 1524 1524 1525 1525 1525 1525 1525 1525 1526 1525 1525 1525 1526 1525 1525 1525 1526 1526 1526 1525 1525 1525 1525 1525 1525 1525 1524 1524 1523 1523
1522 1523 1523 1523 1523 1523 1523 1523 1523 1523 1523 1522 1522 1522 1523 1523 1523 1523 1524 1524 1523 1524 1524 1523 1524 1524 1524 1524 1524 1524 1524 1524 1524 1524 1524 1523 1523 1523 1522 1522 1521 1521 1520
1521 1521 1522 1521 1521 1521 1522 1522 1522 1521 1521 1521 1521 1521 1521 1521 1521 1521 1522 1522 1522 1521 1521 1521 1522 1522 1522 1522 1522 1522 1522 1522 1522 1522 1522 1522 1521 1521 1520 1519 1519 1518 1518
1519 1519 1520 1520 1520 1520 1520 1520 1520 1520 1520 1519 1519 1519 1519 1519 1519 1519 1519 1519 1519 1519 1519 1519 1520 1520 1521 1521 1520 1520 1521 1521 1521 1521 1520 1520 1520 1519 1519 1518 1517 1516 1516
1517 1518 1518 1518 1518 1519 1519 1519 1518 1518 1518 1518 1518 1518 1517 1517 1517 1517 1517 1517 1517 1518 1517 1518 1518 1519 1519 1519 1519 1519 1519 1519 1519 1519 1518 1518 1518 1518 1517 1516 1515 1515 1514
1515 1516 1516 1516 1516 1517 1517 1517 1516 1516 1516 1516 1516 1516 1515 1515 1515 1515 1515 1515 1515 1516 1516 1516 1516 1517 1517 1517 1517 1517 1517 1517 1517 1517 1517 1516 1516 1516 1515 1515 1514 1513 1512
1513 1513 1514 1514 1514 1514 1514 1514 1514 1514 1514 1514 1514 1514 1513 1513 1513 1513 1513 1513 1514 1514 1514 1514 1514 1515 1515 1515 1515 1515 1515 1515 1515 1515 1514 1514 1514 1514 1514 1513 1512 1511 1511
1511 1511 1511 1512 1512 1512 1512 1512 1512 1512 1512 1512 1512 1512 1511 1511 1511 1511 1511 1511 1512 1512 1512 1512 1512 1512 1512 1513 1513 1512 1512 1512 1512 1512 1512 1512 1512 1512 1512 1511 1511 1510 1509
1508 1508 1509 1509 1509 1509 1509 1509 1509 1509 1509 1509 1509 1509 1509 1509 1509 1509 1509 1509 1509 1509 1509 1510 1509 1509 1510 1510 1509 1510 1509 1509 1509 1510 1509 1510 1510 1509 1509 1509 1509 1508 1507
1506 1506 1506 1506 1506 1507 1507 1507 1506 1506 1506 1506 1505 1506 1506 1506 1506 1506 1506 1506 1506 1507 1506 1507 1507 1507 1507 1507 1507 1507 1507 1506 1506 1507 1507 1507 1507 1507 1507 1507 1506 1506 1505
1503 1503 1503 1503 1503 1504 1504 1504 1504 1503 1503 1503 1502 1502 1502 1502 1503 1503 1503 1503 1503 1503 1504 1504 1504 1503 1504 1504 1504 1504 1504 1503 1503 1504 1504 1503 1504 1504 1504 1504 1504 1504 1503
1500 1500 1500 1500 1500 1500 1500 1500 1500 1500 1500 1500 1499 1499 1499 1499 1500 1500 1500 1500 1500 1500 1500 1501 1501 1501 1501 1502 1501 1501 1501 1500 1500 1500 1501 1500 1500 1500 1501 1501 1501 1500 1500
1497 1497 1497 1497 1496 1496 1497 1497 1497 1496 1496 1496 1496 1496 1496 1496 1496 1496 1497 1496 1496 1496 1497 1497 1497 1498 1498 1498 1498 1498 1498 1497 1496 1496 1497 1497 1496 1496 1497 1497 1497 1497 1497
1494 1494 1494 1493 1493 1493 1493 1493 1492 1492 1492 1492 1492 1492 1492 1492 1492 1493 1493 1493 1492 1492 1493 1493 1493 1494 1494 1494 1494 1494 1494 1494 1493 1492 1493 1493 1493 1493 1493 1493 1493 1494 1494